• In United Kingdom
  • List of Countries
  • For 7 days
  • Water Temperature
  • Satellite Maps
  • Weather Map
  • Weather Widgets
  • user-avatar
    Login

    Hourly Weather Sidi Bu-l-Abbas

    Today, 26 June, Monday

    Time Temperature Precipitation Wind Pressure Humidity
    00:00 +29°C° 0 mm 2 mps 718 mmHg 41%
    01:00 +28°C° 0 mm 2 mps 718 mmHg 44%
    02:00 +28°C° 0 mm 2 mps 717 mmHg 46%
    03:00 +27°C° 0 mm 2 mps 717 mmHg 49%
    04:00 +27°C° 0 mm 2 mps 718 mmHg 50%
    05:00 +28°C° 0 mm 2 mps 718 mmHg 50%
    06:00 +28°C° 0 mm 2 mps 719 mmHg 51%
    07:00 +30°C° 0 mm 2 mps 719 mmHg 45%
    08:00 +32°C° 0 mm 2 mps 720 mmHg 38%
    09:00 +36°C° 0 mm 2 mps 720 mmHg 32%
    10:00 +37°C° 0 mm 3 mps 720 mmHg 30%
    11:00 +38°C° 0 mm 3 mps 720 mmHg 27%
    12:00 +39°C° 0 mm 3 mps 720 mmHg 25%
    13:00 +39°C° 0 mm 3 mps 720 mmHg 27%
    14:00 +38°C° 0 mm 3 mps 719 mmHg 28%
    15:00 +38°C° 0 mm 3 mps 719 mmHg 30%
    16:00 +37°C° 0 mm 3 mps 718 mmHg 32%
    17:00 +36°C° 0 mm 2 mps 718 mmHg 35%
    18:00 +35°C° 0 mm 2 mps 718 mmHg 37%
    19:00 +32°C° 0 mm 2 mps 718 mmHg 42%
    20:00 +31°C° 0 mm 1 mps 718 mmHg 47%
    21:00 +29°C° 0 mm 1 mps 718 mmHg 52%
    22:00 +29°C° 0 mm 1 mps 719 mmHg 52%
    23:00 +29°C° 0 mm 1 mps 719 mmHg 52%

    Tomorrow, 27 June, Tuesday

    Time Temperature Precipitation Wind Pressure Humidity
    00:00 +28°C° 0 mm 1 mps 719 mmHg 52%
    01:00 +28°C° 0 mm 1 mps 719 mmHg 50%
    02:00 +28°C° 0 mm 1 mps 718 mmHg 48%
    03:00 +28°C° 0 mm 1 mps 718 mmHg 46%
    04:00 +28°C° 0 mm 2 mps 718 mmHg 44%
    05:00 +29°C° 0 mm 2 mps 718 mmHg 42%
    06:00 +29°C° 0 mm 2 mps 718 mmHg 40%
    07:00 +31°C° 0 mm 2 mps 718 mmHg 35%
    08:00 +34°C° 0 mm 3 mps 719 mmHg 30%
    09:00 +36°C° 0 mm 3 mps 719 mmHg 25%
    10:00 +37°C° 0 mm 4 mps 719 mmHg 23%
    11:00 +39°C° 0 mm 5 mps 719 mmHg 22%
    12:00 +40°C° 0 mm 5 mps 719 mmHg 21%
    13:00 +39°C° 0 mm 5 mps 718 mmHg 21%
    14:00 +39°C° 0 mm 6 mps 718 mmHg 22%
    15:00 +38°C° 0 mm 6 mps 717 mmHg 23%
    16:00 +36°C° 0 mm 5 mps 717 mmHg 24%
    17:00 +35°C° 0 mm 5 mps 717 mmHg 25%
    18:00 +33°C° 0 mm 4 mps 717 mmHg 27%
    19:00 +32°C° 0.1 mm 4 mps 717 mmHg 30%
    20:00 +30°C° 0.1 mm 3 mps 718 mmHg 32%
    21:00 +28°C° 0.1 mm 2 mps 718 mmHg 35%
    22:00 +27°C° 0.1 mm 2 mps 718 mmHg 36%
    23:00 +27°C° 0.1 mm 3 mps 719 mmHg 38%

    Day after tomorrow, 28 June, Wednesday

    Time Temperature Precipitation Wind Pressure Humidity
    00:00 +26°C° 0.1 mm 3 mps 719 mmHg 39%
    01:00 +25°C° 0.1 mm 3 mps 719 mmHg 42%
    02:00 +25°C° 0.1 mm 3 mps 719 mmHg 44%
    03:00 +24°C° 0.1 mm 3 mps 718 mmHg 47%
    04:00 +24°C° 0 mm 3 mps 719 mmHg 47%
    05:00 +23°C° 0 mm 4 mps 719 mmHg 47%
    06:00 +25°C° 0 mm 4 mps 719 mmHg 48%
    07:00 +26°C° 0 mm 4 mps 720 mmHg 44%
    08:00 +28°C° 0 mm 5 mps 720 mmHg 41%
    09:00 +29°C° 0 mm 6 mps 720 mmHg 37%
    10:00 +30°C° 0 mm 6 mps 720 mmHg 34%
    11:00 +33°C° 0 mm 6 mps 720 mmHg 30%
    12:00 +34°C° 0 mm 7 mps 720 mmHg 27%
    13:00 +34°C° 0 mm 7 mps 719 mmHg 27%
    14:00 +34°C° 0 mm 7 mps 719 mmHg 27%
    15:00 +34°C° 0 mm 7 mps 719 mmHg 27%
    16:00 +33°C° 0 mm 7 mps 718 mmHg 30%
    17:00 +30°C° 0 mm 6 mps 718 mmHg 32%
    18:00 +29°C° 0 mm 6 mps 718 mmHg 35%
    19:00 +28°C° 0 mm 5 mps 718 mmHg 40%
    20:00 +26°C° 0 mm 4 mps 718 mmHg 46%
    21:00 +24°C° 0 mm 3 mps 719 mmHg 52%
    22:00 +24°C° 0 mm 3 mps 719 mmHg 53%
    23:00 +22°C° 0 mm 3 mps 719 mmHg 55%

    29 June, Thursday

    Time Temperature Precipitation Wind Pressure Humidity
    00:00 +22°C° 0 mm 3 mps 719 mmHg 57%
    01:00 +21°C° 0 mm 3 mps 719 mmHg 59%
    02:00 +21°C° 0 mm 3 mps 718 mmHg 61%
    03:00 +20°C° 0 mm 3 mps 718 mmHg 64%
    04:00 +21°C° 0 mm 3 mps 718 mmHg 63%
    05:00 +21°C° 0 mm 3 mps 718 mmHg 62%
    06:00 +22°C° 0 mm 3 mps 719 mmHg 61%
    07:00 +23°C° 0 mm 4 mps 719 mmHg 55%
    08:00 +26°C° 0 mm 4 mps 719 mmHg 48%
    09:00 +28°C° 0 mm 4 mps 719 mmHg 42%
    10:00 +29°C° 0 mm 5 mps 719 mmHg 39%
    11:00 +30°C° 0 mm 5 mps 719 mmHg 36%
    12:00 +33°C° 0 mm 5 mps 719 mmHg 33%
    13:00 +33°C° 0 mm 6 mps 718 mmHg 34%
    14:00 +33°C° 0 mm 6 mps 718 mmHg 35%
    15:00 +33°C° 0 mm 6 mps 718 mmHg 36%
    16:00 +30°C° 0 mm 6 mps 717 mmHg 37%
    17:00 +29°C° 0 mm 6 mps 717 mmHg 38%
    18:00 +28°C° 0 mm 6 mps 717 mmHg 39%
    19:00 +26°C° 0 mm 5 mps 718 mmHg 42%
    20:00 +25°C° 0 mm 4 mps 718 mmHg 44%
    21:00 +24°C° 0 mm 3 mps 719 mmHg 46%
    22:00 +22°C° 0 mm 3 mps 719 mmHg 46%
    23:00 +22°C° 0 mm 3 mps 719 mmHg 46%

    30 June, Friday

    Time Temperature Precipitation Wind Pressure Humidity
    00:00 +21°C° 0 mm 3 mps 719 mmHg 46%
    01:00 +21°C° 0 mm 3 mps 719 mmHg 47%
    02:00 +20°C° 0 mm 3 mps 718 mmHg 47%
    03:00 +20°C° 0 mm 3 mps 718 mmHg 48%
    04:00 +20°C° 0 mm 3 mps 719 mmHg 48%
    05:00 +21°C° 0 mm 4 mps 719 mmHg 47%
    06:00 +21°C° 0 mm 4 mps 719 mmHg 47%
    07:00 +22°C° 0 mm 5 mps 719 mmHg 43%
    08:00 +24°C° 0 mm 6 mps 720 mmHg 39%
    09:00 +26°C° 0 mm 6 mps 720 mmHg 35%
    10:00 +27°C° 0 mm 7 mps 720 mmHg 33%
    11:00 +28°C° 0 mm 7 mps 720 mmHg 30%
    12:00 +29°C° 0 mm 7 mps 720 mmHg 27%
    13:00 +29°C° 0 mm 7 mps 720 mmHg 26%
    14:00 +28°C° 0 mm 7 mps 720 mmHg 26%
    15:00 +28°C° 0 mm 7 mps 720 mmHg 25%
    16:00 +27°C° 0 mm 6 mps 720 mmHg 25%
    17:00 +26°C° 0 mm 6 mps 720 mmHg 26%
    18:00 +26°C° 0 mm 5 mps 720 mmHg 27%
    19:00 +23°C° 0 mm 4 mps 721 mmHg 31%
    20:00 +21°C° 0 mm 3 mps 721 mmHg 35%
    21:00 +20°C° 0 mm 2 mps 722 mmHg 39%
    22:00 +19°C° 0 mm 2 mps 721 mmHg 41%
    23:00 +19°C° 0 mm 1 mps 721 mmHg 42%

    1 July, Saturday

    Time Temperature Precipitation Wind Pressure Humidity
    00:00 +19°C° 0 mm 1 mps 721 mmHg 43%
    01:00 +19°C° 0 mm 1 mps 721 mmHg 43%
    02:00 +18°C° 0 mm 1 mps 721 mmHg 42%
    03:00 +18°C° 0 mm 1 mps 720 mmHg 42%
    04:00 +19°C° 0 mm 1 mps 721 mmHg 41%
    05:00 +19°C° 0 mm 1 mps 721 mmHg 39%
    06:00 +20°C° 0 mm 1 mps 721 mmHg 37%
    07:00 +23°C° 0 mm 1 mps 722 mmHg 33%
    08:00 +25°C° 0 mm 2 mps 722 mmHg 29%
    09:00 +27°C° 0 mm 2 mps 723 mmHg 25%
    10:00 +29°C° 0 mm 3 mps 723 mmHg 23%
    11:00 +30°C° 0 mm 4 mps 723 mmHg 20%
    12:00 +32°C° 0 mm 4 mps 722 mmHg 18%
    13:00 +33°C° 0 mm 5 mps 722 mmHg 18%
    14:00 +33°C° 0 mm 5 mps 722 mmHg 18%
    15:00 +33°C° 0 mm 6 mps 722 mmHg 19%
    16:00 +32°C° 0 mm 6 mps 722 mmHg 21%
    17:00 +30°C° 0 mm 6 mps 721 mmHg 24%
    18:00 +29°C° 0 mm 6 mps 721 mmHg 27%
    19:00 +27°C° 0 mm 5 mps 722 mmHg 31%
    20:00 +25°C° 0 mm 4 mps 722 mmHg 35%
    21:00 +22°C° 0 mm 3 mps 722 mmHg 39%
    22:00 +22°C° 0 mm 3 mps 722 mmHg 40%
    23:00 +21°C° 0 mm 2 mps 722 mmHg 41%
    Show more